Tracking 35237 objects as of 5-Sep-2026
HD Live streaming from Space Station
objects crossing your sky now

FIREFLY-2

Track FIREFLY-2 now!
10-day predictions


NORAD ID: 62704
Int'l Code: 2025-009CZ
Launch date: January 14, 2025
Source: United States (US)
Launch site: AIR FORCE WESTERN TEST RANGE (AFWTR)
Your satellite tracking list
Your tracking list is empty




NASA's NSSDC Master Catalog

Two Line Element Set (TLE):
1 62704U 25009CZ  26248.57614420  .00000468  00000-0  50788-4 0  9996
2 62704  97.6970 324.7584 0007191 157.9563 202.1968 14.92689305 89312
Source of the keplerian elements: AFSPC